Time,TemperatureF,DewpointF,PressureIn,WindDirection,WindDirectionDegrees,WindSpeedMPH,WindSpeedGustMPH,Humidity,HourlyPrecipIn,Conditions,Clouds,dailyrainin,SoftwareType,DateUTC
2013-09-14 00:00:00,52.1,51.5,29.88,SSE,152,0.0,1.0,98,0.00,CLR,,0.00,WeatherDisplay:10.37,2013-09-14 04:00:00,
2013-09-14 01:00:00,50.6,50.1,29.88,SSE,152,0.0,1.0,98,0.00,CLR,,0.00,WeatherDisplay:10.37,2013-09-14 05:00:00,
2013-09-14 02:00:00,49.5,48.9,29.89,SSE,152,0.0,0.0,98,0.00,CLR,,0.00,WeatherDisplay:10.37,2013-09-14 06:00:00,
2013-09-14 03:00:00,50.1,49.5,29.88,North,1,0.0,2.0,98,0.00,CLR,,0.00,WeatherDisplay:10.37,2013-09-14 07:00:00,
2013-09-14 04:00:00,49.9,49.3,29.88,North,1,0.0,0.0,98,0.00,CLR,,0.00,WeatherDisplay:10.37,2013-09-14 08:00:00,
2013-09-14 05:00:00,49.1,48.5,29.88,North,1,0.0,0.0,98,0.00,CLR,,0.00,WeatherDisplay:10.37,2013-09-14 09:00:00,
2013-09-14 06:59:00,47.6,47.0,29.91,North,2,0.0,0.0,98,0.00,CLR,,0.00,WeatherDisplay:10.37,2013-09-14 10:59:00,
2013-09-14 07:59:00,46.8,46.2,29.94,North,1,0.0,0.0,98,0.00,CLR,,0.00,WeatherDisplay:10.37,2013-09-14 11:59:00,
2013-09-14 08:59:00,48.1,47.6,29.96,North,1,0.0,0.0,98,0.00,CLR,,0.00,WeatherDisplay:10.37,2013-09-14 12:59:00,
2013-09-14 09:59:00,51.5,51.0,29.97,North,1,0.0,0.0,98,0.00,CLR,,0.00,WeatherDisplay:10.37,2013-09-14 13:59:00,
2013-09-14 10:59:00,66.0,57.9,29.98,East,89,0.0,1.0,75,0.00,CLR,,0.00,WeatherDisplay:10.37,2013-09-14 14:59:00,
2013-09-14 11:59:00,70.3,59.2,29.97,SSE,157,0.0,3.0,68,0.00,CLR,,0.00,WeatherDisplay:10.37,2013-09-14 15:59:00,
2013-09-14 12:59:00,72.8,60.3,29.97,ENE,57,1.0,5.0,65,0.00,CLR,,0.00,WeatherDisplay:10.37,2013-09-14 16:59:00,
2013-09-14 13:59:00,72.1,58.8,29.95,ENE,59,0.0,8.0,63,0.00,SCT,,0.00,WeatherDisplay:10.37,2013-09-14 17:59:00,
2013-09-14 14:59:00,74.8,59.0,29.94,SSE,148,6.0,7.0,58,0.00,SCT,,0.00,WeatherDisplay:10.37,2013-09-14 18:59:00,
2013-09-14 15:59:00,75.5,60.6,29.93,SSE,158,0.0,8.0,60,0.00,SCT,,0.00,WeatherDisplay:10.37,2013-09-14 19:59:00,
2013-09-14 16:59:00,72.9,62.5,29.94,SE,141,1.0,5.0,70,0.00,CLR,,0.00,WeatherDisplay:10.37,2013-09-14 20:59:00,
2013-09-14 17:59:00,69.8,63.3,29.95,SSE,154,0.0,6.0,80,0.00,BKN,,0.00,WeatherDisplay:10.37,2013-09-14 21:59:00,
2013-09-14 18:59:00,65.1,61.8,29.95,SSW,207,0.0,1.0,89,0.00,CLR,,0.00,WeatherDisplay:10.37,2013-09-14 22:59:00,
2013-09-14 19:59:00,62.0,60.2,29.97,SSW,207,0.0,1.0,94,0.00,CLR,,0.00,WeatherDisplay:10.37,2013-09-14 23:59:00,
2013-09-14 20:59:00,58.9,57.8,30.00,SSW,207,0.0,1.0,96,0.00,SCT,,0.00,WeatherDisplay:10.37,2013-09-15 00:59:00,
2013-09-14 21:59:00,56.8,56.0,30.01,SSW,207,0.0,1.0,97,0.00,CLR,,0.00,WeatherDisplay:10.37,2013-09-15 01:59:00,
2013-09-14 22:59:00,54.8,54.0,30.02,SSW,207,0.0,0.0,97,0.00,CLR,,0.00,WeatherDisplay:10.37,2013-09-15 02:59:00,
2013-09-14 23:59:00,53.2,52.7,30.05,SSW,207,0.0,1.0,98,0.00,CLR,,0.00,WeatherDisplay:10.37,2013-09-15 03:59:00,